CW0003 Weather Reports


time (UTC)temp
C
wind
direction
speed
KPH
gust
KPH
rain 1hr
cm
rain 24hr
cm
rain mn
cm
humidity
%
barometer
mb
20260505013056 15 0.0 0.0 0.00 0.00 0.00 52 1008.2
20260505011552 16 0.0 0.0 0.00 0.00 0.00 50 1007.9
20260505010053 16 0.0 0.0 0.00 0.00 0.00 48 1007.7
20260505004547 16 0.0 0.0 0.00 0.00 0.00 47 1007.3
20260505003050 16 0.0 0.0 0.00 0.00 0.00 47 1007.0
20260505001526 17 0.0 0.0 0.00 0.00 0.00 46 1006.7
20260505000026 17 0.0 0.0 0.00 0.00 0.00 44 1006.4
20260504234515 18 0.0 0.0 0.00 0.00 0.00 43 1005.9
20260504233011 18 0.0 0.0 0.00 0.00 0.00 41 1005.7
20260504231502 19 172 4.8 20.9 0.00 0.00 0.00 37 1005.1
20260504230101 20 196 1.6 12.9 0.00 0.00 0.00 33 1005.1
20260504224559 21 243 4.8 22.5 0.00 0.00 0.00 32 1004.8
20260504223117 21 158 1.6 20.9 0.00 0.00 0.00 31 1004.7
20260504221554 21 166 8.0 19.3 0.00 0.00 0.00 31 1004.8
20260504220053 21 175 4.8 17.7 0.00 0.00 0.00 31 1004.9
20260504214552 21 189 4.8 19.3 0.00 0.00 0.00 32 1004.9
20260504213049 21 177 8.0 32.2 0.00 0.00 0.00 31 1004.9
20260504211626 22 171 6.4 30.6 0.00 0.00 0.00 28 1005.0
20260504210051 23 170 4.8 17.7 0.00 0.00 0.00 28 1004.8
20260504204544 23 236 3.2 22.5 0.00 0.00 0.00 28 1004.9
20260504203043 22 182 11.3 29.0 0.00 0.00 0.00 28 1004.8
20260504201538 22 197 4.8 30.6 0.00 0.00 0.00 30 1004.8
20260504200037 22 205 1.6 17.7 0.00 0.00 0.00 29 1004.9
20260504194537 22 166 6.4 24.1 0.00 0.00 0.00 27 1004.9
20260504193034 22 234 9.7 27.4 0.00 0.00 0.00 27 1004.9
20260504191534 22 173 8.0 35.4 0.00 0.00 0.00 26 1004.9
20260504190027 22 189 8.0 22.5 0.00 0.00 0.00 29 1005.4
20260504184536 22 215 6.4 25.7 0.00 0.00 0.00 28 1005.5
20260504183020 22 165 11.3 29.0 0.00 0.00 0.00 29 1005.7
20260504181516 22 173 4.8 20.9 0.00 0.00 0.00 28 1005.8
20260504180014 21 207 6.4 20.9 0.00 0.00 0.00 29 1005.7
20260504174552 21 200 8.0 37.0 0.00 0.00 0.00 27 1005.8
20260504173052 21 178 8.0 32.2 0.00 0.00 0.00 29 1005.9
20260504171544 21 180 16.1 37.0 0.00 0.00 0.00 31 1006.1
20260504120104 11 173 4.8 14.5 0.00 0.05 0.00 55 1009.2
20260504081537 -17 0.0 0.0 0.00 0.05 0.00 1009.1
20260504050025 0 0.0 0.0 0.00 0.05 0.00 88 1009.1
20260504044515 0 0.0 0.0 0.00 0.05 0.00 89 1008.9
20260504043013 0 0.0 0.0 0.00 0.05 0.00 89 1008.9
20260504041600 0 0.0 0.0 0.00 0.05 0.00 87 1008.8
20260504040128 0 0.0 0.0 0.00 0.05 0.00 86 1008.7
20260504034548 0 0.0 0.0 0.00 0.05 0.05 86 1008.8
20260504033047 0 0.0 0.0 0.00 0.05 0.05 86 1008.6
20260504031550 0 0.0 0.0 0.00 0.05 0.05 84 1008.5
20260504030031 0 0.0 0.0 0.00 0.05 0.05 82 1008.4
20260504024526 1 0.0 0.0 0.00 0.05 0.05 83 1008.3
20260504023020 1 0.0 0.0 0.00 0.05 0.05 81 1008.2
20260504021514 1 0.0 0.0 0.00 0.05 0.05 79 1008.2
20260504020112 2 0.0 0.0 0.00 0.05 0.05 78 1008.1
20260504014555 2 0.0 0.0 0.00 0.05 0.05 75 1008.0